ARG0505 SANT-SABE

Flight info

Callsign ARG0505
Flight time 1h 25m
Altitude FL330
Route PUBE3E PUBER UL550 ROS UT672 MULTA UW24 SNT
Aircraft MD82/M-VGDW/C

Departure

Time 2026-04-23 19:54
Airport Teniente Benjamín Matienzo International Airport (SANT)

Arrival

Time 2026-04-23 21:20
Airport Aeroparque Jorge Newbery (SABE)
Time Latitude Longitude Altitude Speed Heading
2026-04-23 19:19 -26.83607 -65.10760 1493 ft 0 kts 280°
2026-04-23 19:46 -26.83608 -65.10752 1493 ft 2 kts 280°
2026-04-23 19:47 -26.83610 -65.10740 1479 ft 2 kts 280°
2026-04-23 19:47 -26.83614 -65.10715 1486 ft 2 kts 280°
2026-04-23 19:47 -26.83617 -65.10696 1493 ft 2 kts 280°
2026-04-23 19:47 -26.83619 -65.10686 1493 ft 0 kts 280°
2026-04-23 19:48 -26.83618 -65.10689 1493 ft 0 kts 284°
2026-04-23 19:48 -26.83617 -65.10692 1493 ft 2 kts 284°
2026-04-23 19:49 -26.83588 -65.10700 1488 ft 8 kts 36°
2026-04-23 19:49 -26.83543 -65.10690 1487 ft 10 kts 354°
2026-04-23 19:49 -26.83454 -65.10659 1481 ft 17 kts 36°
2026-04-23 19:49 -26.83366 -65.10569 1493 ft 16 kts 40°
2026-04-23 19:50 -26.83279 -65.10499 1491 ft 15 kts 38°
2026-04-23 19:50 -26.83197 -65.10424 1483 ft 15 kts 39°
2026-04-23 19:50 -26.83114 -65.10347 1488 ft 16 kts 40°
2026-04-23 19:50 -26.83021 -65.10285 1481 ft 16 kts 15°
2026-04-23 19:51 -26.82914 -65.10253 1477 ft 17 kts 13°
2026-04-23 19:51 -26.82798 -65.10232 1488 ft 17 kts 10°
2026-04-23 19:51 -26.82683 -65.10208 1480 ft 16 kts 10°
2026-04-23 19:51 -26.82574 -65.10188 1478 ft 16 kts
2026-04-23 19:52 -26.82469 -65.10190 1483 ft 15 kts 341°
2026-04-23 19:52 -26.82373 -65.10197 1488 ft 11 kts 21°
2026-04-23 19:52 -26.82376 -65.10152 1481 ft 6 kts 170°
2026-04-23 19:52 -26.82390 -65.10153 1488 ft 0 kts 184°
2026-04-23 19:53 -26.82399 -65.10154 1489 ft 0 kts 187°
2026-04-23 19:53 -26.82400 -65.10154 1490 ft 2 kts 187°
2026-04-23 19:53 -26.82626 -65.10196 1479 ft 64 kts 190°
2026-04-23 19:54 -26.83283 -65.10327 1485 ft 126 kts 189°
2026-04-23 19:54 -26.84313 -65.10536 1559 ft 175 kts 190°
2026-04-23 19:54 -26.85511 -65.10651 2659 ft 166 kts 174°
2026-04-23 19:54 -26.86629 -65.10089 3418 ft 202 kts 133°
2026-04-23 19:55 -26.87104 -65.08514 4080 ft 231 kts 85°
2026-04-23 19:55 -26.86982 -65.06988 5838 ft 172 kts 95°
2026-04-23 19:55 -26.87413 -65.05634 5740 ft 214 kts 132°
2026-04-23 19:55 -26.88680 -65.04630 6047 ft 225 kts 165°
2026-04-23 19:56 -26.90141 -65.04657 6970 ft 207 kts 204°
2026-04-23 19:56 -26.91212 -65.05762 7190 ft 231 kts 247°
2026-04-23 19:56 -26.91679 -65.07590 7265 ft 252 kts 234°
2026-04-23 19:56 -26.93230 -65.08460 6922 ft 284 kts 178°
2026-04-23 19:57 -26.95049 -65.07948 7912 ft 244 kts 149°
2026-04-23 19:57 -26.96375 -65.07106 9149 ft 215 kts 163°
2026-04-23 19:57 -26.97946 -65.06695 8908 ft 251 kts 160°
2026-04-23 19:57 -26.99477 -65.05627 8979 ft 266 kts 139°
2026-04-23 19:58 -27.00851 -65.04222 9394 ft 269 kts 133°
2026-04-23 19:58 -27.02130 -65.02681 9781 ft 273 kts 130°
2026-04-23 19:58 -27.03376 -65.01058 10137 ft 277 kts 130°
2026-04-23 19:58 -27.04696 -64.99470 10484 ft 281 kts 135°
2026-04-23 19:59 -27.06157 -64.97989 10831 ft 286 kts 140°
2026-04-23 19:59 -27.07729 -64.96610 11178 ft 289 kts 143°
2026-04-23 19:59 -27.09379 -64.95302 11544 ft 292 kts 146°
2026-04-23 19:59 -27.11072 -64.94029 11903 ft 295 kts 147°
2026-04-23 20:00 -27.12803 -64.92792 12264 ft 297 kts 149°
2026-04-23 20:00 -27.14563 -64.91586 12636 ft 298 kts 149°
2026-04-23 20:00 -27.16313 -64.90387 13004 ft 298 kts 150°
2026-04-23 20:00 -27.18092 -64.89182 13376 ft 299 kts 150°
2026-04-23 20:01 -27.19876 -64.87990 13758 ft 299 kts 150°
2026-04-23 20:01 -27.21657 -64.86790 14105 ft 300 kts 150°
2026-04-23 20:01 -27.23439 -64.85579 14461 ft 299 kts 150°
2026-04-23 20:01 -27.25210 -64.84373 14805 ft 298 kts 151°
2026-04-23 20:02 -27.26978 -64.83167 15160 ft 297 kts 151°
2026-04-23 20:02 -27.28740 -64.81963 15511 ft 297 kts 151°
2026-04-23 20:02 -27.30500 -64.80760 15869 ft 296 kts 152°
2026-04-23 20:02 -27.32249 -64.79564 16231 ft 294 kts 152°
2026-04-23 20:03 -27.33991 -64.78372 16588 ft 292 kts 152°
2026-04-23 20:03 -27.35717 -64.77192 16964 ft 290 kts 152°
2026-04-23 20:03 -27.37432 -64.76018 17345 ft 287 kts 153°
2026-04-23 20:03 -27.39126 -64.74857 17724 ft 285 kts 153°
2026-04-23 20:04 -27.40807 -64.73706 18110 ft 282 kts 153°
2026-04-23 20:04 -27.42466 -64.72568 18483 ft 278 kts 153°
2026-04-23 20:04 -27.44105 -64.71445 18815 ft 274 kts 153°
2026-04-23 20:04 -27.45716 -64.70343 19152 ft 270 kts 154°
2026-04-23 20:05 -27.47305 -64.69257 19496 ft 264 kts 154°
2026-04-23 20:05 -27.48853 -64.68194 19842 ft 258 kts 154°
2026-04-23 20:05 -27.50374 -64.67152 20111 ft 256 kts 154°
2026-04-23 20:05 -27.51888 -64.66116 20328 ft 255 kts 154°
2026-04-23 20:06 -27.53405 -64.65081 20525 ft 255 kts 154°
2026-04-23 20:06 -27.54923 -64.64058 20710 ft 255 kts 155°
2026-04-23 20:06 -27.56448 -64.63033 20880 ft 256 kts 155°
2026-04-23 20:06 -27.57981 -64.62007 20957 ft 262 kts 155°
2026-04-23 20:07 -27.59558 -64.60956 21101 ft 262 kts 155°
2026-04-23 20:07 -27.61122 -64.59908 21273 ft 264 kts 155°
2026-04-23 20:07 -27.62731 -64.58835 21347 ft 275 kts 154°
2026-04-23 20:07 -27.64412 -64.57715 21400 ft 287 kts 154°
2026-04-23 20:08 -27.66164 -64.56547 21453 ft 299 kts 154°
2026-04-23 20:08 -27.67990 -64.55325 21497 ft 312 kts 154°
2026-04-23 20:08 -27.69886 -64.54052 21549 ft 324 kts 153°
2026-04-23 20:08 -27.71856 -64.52726 21577 ft 337 kts 153°
2026-04-23 20:09 -27.73902 -64.51347 21607 ft 350 kts 153°
2026-04-23 20:09 -27.76023 -64.49915 21658 ft 362 kts 153°
2026-04-23 20:09 -27.78206 -64.48438 21737 ft 373 kts 153°
2026-04-23 20:09 -27.80462 -64.46913 21834 ft 383 kts 153°
2026-04-23 20:10 -27.81990 -64.45879 21975 ft 387 kts 153°
2026-04-23 20:10 -27.85073 -64.43792 22437 ft 390 kts 153°
2026-04-23 20:10 -27.87401 -64.42215 22785 ft 392 kts 153°
2026-04-23 20:10 -27.89740 -64.40632 23098 ft 394 kts 153°
2026-04-23 20:11 -27.92101 -64.39035 23410 ft 398 kts 153°
2026-04-23 20:11 -27.94475 -64.37427 23723 ft 401 kts 153°
2026-04-23 20:11 -27.96868 -64.35806 23991 ft 403 kts 153°
2026-04-23 20:11 -27.99273 -64.34175 24289 ft 404 kts 153°
2026-04-23 20:12 -28.01684 -64.32541 24567 ft 406 kts 153°
2026-04-23 20:12 -28.04118 -64.30893 24843 ft 409 kts 154°
2026-04-23 20:12 -28.06555 -64.29243 25102 ft 411 kts 154°
2026-04-23 20:12 -28.09017 -64.27577 25369 ft 414 kts 154°
2026-04-23 20:13 -28.11487 -64.25903 25662 ft 415 kts 154°
2026-04-23 20:13 -28.13961 -64.24226 25970 ft 416 kts 154°
2026-04-23 20:13 -28.16446 -64.22541 26227 ft 419 kts 154°
2026-04-23 20:13 -28.18950 -64.20842 26490 ft 421 kts 154°
2026-04-23 20:14 -28.21465 -64.19135 26761 ft 423 kts 155°
2026-04-23 20:14 -28.23989 -64.17421 27047 ft 425 kts 155°
2026-04-23 20:14 -28.26528 -64.15696 27313 ft 427 kts 155°
2026-04-23 20:14 -28.29075 -64.13964 27556 ft 430 kts 155°
2026-04-23 20:15 -28.31641 -64.12213 27839 ft 432 kts 155°
2026-04-23 20:15 -28.34211 -64.10457 28124 ft 433 kts 155°
2026-04-23 20:15 -28.36797 -64.08689 28392 ft 435 kts 155°
2026-04-23 20:15 -28.39393 -64.06917 28638 ft 438 kts 155°
2026-04-23 20:16 -28.42007 -64.05133 28876 ft 440 kts 155°
2026-04-23 20:16 -28.44632 -64.03342 29143 ft 442 kts 155°
2026-04-23 20:16 -28.47270 -64.01541 29428 ft 444 kts 155°
2026-04-23 20:16 -28.49915 -63.99735 29686 ft 446 kts 155°
2026-04-23 20:17 -28.52579 -63.97914 29913 ft 449 kts 155°
2026-04-23 20:17 -28.55250 -63.96088 30169 ft 451 kts 155°
2026-04-23 20:17 -28.57935 -63.94249 30380 ft 453 kts 155°
2026-04-23 20:17 -28.60630 -63.92402 30548 ft 456 kts 155°
2026-04-23 20:18 -28.63333 -63.90550 30737 ft 458 kts 155°
2026-04-23 20:18 -28.66065 -63.88674 30929 ft 460 kts 155°
2026-04-23 20:18 -28.68803 -63.86791 31121 ft 462 kts 156°
2026-04-23 20:18 -28.71565 -63.84891 31290 ft 465 kts 156°
2026-04-23 20:19 -28.74335 -63.82987 31483 ft 467 kts 156°
2026-04-23 20:19 -28.77108 -63.81080 31668 ft 470 kts 156°
2026-04-23 20:19 -28.79909 -63.79153 31839 ft 472 kts 156°
2026-04-23 20:19 -28.82725 -63.77219 32007 ft 475 kts 156°
2026-04-23 20:20 -28.85543 -63.75261 32195 ft 477 kts 156°
2026-04-23 20:20 -28.88372 -63.73278 32370 ft 479 kts 156°
2026-04-23 20:20 -28.91217 -63.71284 32524 ft 482 kts 156°
2026-04-23 20:20 -28.94069 -63.69289 32694 ft 484 kts 156°
2026-04-23 20:21 -28.96946 -63.67282 32853 ft 486 kts 156°
2026-04-23 20:21 -28.99834 -63.65270 32979 ft 489 kts 156°
2026-04-23 20:21 -29.02754 -63.63241 33040 ft 494 kts 157°
2026-04-23 20:22 -29.08676 -63.59129 33080 ft 506 kts 156°
2026-04-23 20:22 -29.14739 -63.54896 33090 ft 519 kts 156°
2026-04-23 20:23 -29.20946 -63.50531 33092 ft 530 kts 155°
2026-04-23 20:23 -29.27226 -63.46113 33092 ft 532 kts 155°
2026-04-23 20:24 -29.33502 -63.41701 33099 ft 529 kts 156°
2026-04-23 20:24 -29.39758 -63.37307 33098 ft 528 kts 155°
2026-04-23 20:25 -29.46022 -63.32906 33103 ft 530 kts 156°
2026-04-23 20:25 -29.52285 -63.28472 33102 ft 530 kts 155°
2026-04-23 20:26 -29.58527 -63.24020 33103 ft 531 kts 155°
2026-04-23 20:26 -29.64810 -63.19548 33098 ft 531 kts 155°
2026-04-23 20:27 -29.71090 -63.15085 33097 ft 532 kts 155°
2026-04-23 20:27 -29.77366 -63.10618 33096 ft 532 kts 155°
2026-04-23 20:28 -29.83647 -63.06137 33108 ft 533 kts 155°
2026-04-23 20:28 -29.89930 -63.01633 33107 ft 533 kts 155°
2026-04-23 20:29 -29.96212 -62.97129 33104 ft 532 kts 155°
2026-04-23 20:29 -30.02388 -62.92703 33102 ft 531 kts 155°
2026-04-23 20:30 -30.08655 -62.88208 33104 ft 531 kts 154°
2026-04-23 20:30 -30.18063 -62.81446 33103 ft 533 kts 154°
2026-04-23 20:31 -30.24320 -62.76936 33109 ft 533 kts 154°
2026-04-23 20:31 -30.30581 -62.72417 33104 ft 533 kts 154°
2026-04-23 20:32 -30.36726 -62.67982 33104 ft 533 kts 154°
2026-04-23 20:32 -30.43138 -62.63327 33109 ft 534 kts 154°
2026-04-23 20:33 -30.49394 -62.58761 33113 ft 532 kts 154°
2026-04-23 20:33 -30.55652 -62.54217 33106 ft 531 kts 154°
2026-04-23 20:34 -30.61899 -62.49687 33109 ft 532 kts 154°
2026-04-23 20:34 -30.68160 -62.45137 33108 ft 532 kts 154°
2026-04-23 20:35 -30.74413 -62.40580 33104 ft 532 kts 153°
2026-04-23 20:35 -30.80675 -62.36017 33110 ft 532 kts 153°
2026-04-23 20:36 -30.86925 -62.31467 33112 ft 532 kts 153°
2026-04-23 20:36 -30.93183 -62.26913 33110 ft 532 kts 153°
2026-04-23 20:37 -30.99447 -62.22357 33109 ft 532 kts 153°
2026-04-23 20:37 -31.05707 -62.17798 33109 ft 531 kts 153°
2026-04-23 20:38 -31.11958 -62.13230 33114 ft 531 kts 153°
2026-04-23 20:38 -31.18210 -62.08657 33112 ft 530 kts 153°
2026-04-23 20:39 -31.24433 -62.04078 33117 ft 529 kts 152°
2026-04-23 20:39 -31.30617 -61.99470 33119 ft 528 kts 152°
2026-04-23 20:40 -31.36805 -61.94857 33120 ft 529 kts 152°
2026-04-23 20:40 -31.42998 -61.90247 33120 ft 529 kts 152°
2026-04-23 20:41 -31.49199 -61.85628 33118 ft 529 kts 152°
2026-04-23 20:41 -31.55400 -61.81000 33123 ft 529 kts 152°
2026-04-23 20:42 -31.61595 -61.76354 33122 ft 530 kts 152°
2026-04-23 20:42 -31.67791 -61.71701 33125 ft 530 kts 152°
2026-04-23 20:43 -31.73977 -61.67059 33124 ft 529 kts 152°
2026-04-23 20:43 -31.80159 -61.62418 33129 ft 528 kts 152°
2026-04-23 20:44 -31.86330 -61.57776 33131 ft 527 kts 151°
2026-04-23 20:44 -31.92479 -61.53149 33128 ft 528 kts 151°
2026-04-23 20:45 -31.98637 -61.48466 33138 ft 528 kts 151°
2026-04-23 20:45 -32.04786 -61.43794 33138 ft 528 kts 151°
2026-04-23 20:46 -32.10953 -61.39124 33138 ft 528 kts 151°
2026-04-23 20:46 -32.17131 -61.34444 33139 ft 528 kts 151°
2026-04-23 20:47 -32.23288 -61.29768 33131 ft 528 kts 151°
2026-04-23 20:47 -32.29443 -61.25073 33137 ft 528 kts 151°
2026-04-23 20:48 -32.35533 -61.20416 33140 ft 527 kts 151°
2026-04-23 20:48 -32.41655 -61.15738 33139 ft 527 kts 151°
2026-04-23 20:49 -32.47814 -61.11030 33143 ft 528 kts 151°
2026-04-23 20:49 -32.53963 -61.06320 33143 ft 528 kts 151°
2026-04-23 20:50 -32.60122 -61.01594 33142 ft 528 kts 151°
2026-04-23 20:50 -32.66267 -60.96857 33144 ft 528 kts 150°
2026-04-23 20:51 -32.72416 -60.92112 33138 ft 528 kts 151°
2026-04-23 20:51 -32.78529 -60.87402 33134 ft 528 kts 151°
2026-04-23 20:52 -32.84678 -60.82659 33131 ft 528 kts 151°
2026-04-23 20:52 -32.90836 -60.77912 33131 ft 528 kts 152°
2026-04-23 20:53 -32.97071 -60.73500 33132 ft 526 kts 154°
2026-04-23 20:53 -33.03421 -60.69193 33135 ft 526 kts 155°
2026-04-23 20:54 -33.09769 -60.64856 33139 ft 527 kts 154°
2026-04-23 20:54 -33.16096 -60.60475 33147 ft 527 kts 154°
2026-04-23 20:55 -33.22424 -60.56076 33146 ft 527 kts 154°
2026-04-23 20:55 -33.28749 -60.51681 33148 ft 527 kts 154°
2026-04-23 20:56 -33.35059 -60.47280 33150 ft 526 kts 154°
2026-04-23 20:56 -33.41354 -60.42889 33146 ft 525 kts 154°
2026-04-23 20:57 -33.47656 -60.38492 33153 ft 526 kts 154°
2026-04-23 20:57 -33.53970 -60.34082 33146 ft 526 kts 154°
2026-04-23 20:58 -33.60278 -60.29666 33149 ft 527 kts 154°
2026-04-23 20:58 -33.66598 -60.25234 33143 ft 527 kts 154°
2026-04-23 20:59 -33.72907 -60.20799 33146 ft 526 kts 154°
2026-04-23 20:59 -33.79202 -60.16368 33143 ft 525 kts 154°
2026-04-23 21:00 -33.85090 -60.11183 32861 ft 537 kts 132°
2026-04-23 21:00 -33.87338 -60.07589 32633 ft 537 kts 123°
2026-04-23 21:00 -33.89351 -60.03827 32394 ft 533 kts 122°
2026-04-23 21:01 -33.91310 -60.00064 32164 ft 530 kts 122°
2026-04-23 21:01 -33.93273 -59.96337 31932 ft 527 kts 123°
2026-04-23 21:01 -33.95257 -59.92656 31719 ft 525 kts 123°
2026-04-23 21:01 -33.97268 -59.89010 31501 ft 523 kts 124°
2026-04-23 21:02 -33.99295 -59.85391 31282 ft 521 kts 124°
2026-04-23 21:02 -34.01322 -59.81792 31061 ft 519 kts 124°
2026-04-23 21:02 -34.03339 -59.78209 30688 ft 516 kts 124°
2026-04-23 21:02 -34.05340 -59.74643 29952 ft 514 kts 124°
2026-04-23 21:03 -34.07335 -59.71066 28928 ft 516 kts 124°
2026-04-23 21:03 -34.09331 -59.67458 27779 ft 521 kts 124°
2026-04-23 21:03 -34.11333 -59.63808 26555 ft 526 kts 125°
2026-04-23 21:03 -34.13362 -59.60134 25622 ft 525 kts 125°
2026-04-23 21:04 -34.15357 -59.56501 25012 ft 515 kts 125°
2026-04-23 21:04 -34.17308 -59.52945 24382 ft 506 kts 126°
2026-04-23 21:04 -34.19248 -59.49434 23712 ft 499 kts 126°
2026-04-23 21:04 -34.21151 -59.45972 22944 ft 492 kts 123°
2026-04-23 21:05 -34.22555 -59.42249 22195 ft 488 kts 107°
2026-04-23 21:05 -34.23319 -59.38288 21517 ft 480 kts 100°
2026-04-23 21:05 -34.23874 -59.34342 20792 ft 474 kts 99°
2026-04-23 21:05 -34.24382 -59.30439 20096 ft 468 kts 99°
2026-04-23 21:06 -34.24887 -59.26582 19435 ft 462 kts 99°
2026-04-23 21:06 -34.25402 -59.22802 18797 ft 455 kts 100°
2026-04-23 21:06 -34.25940 -59.19062 18102 ft 449 kts 101°
2026-04-23 21:06 -34.26494 -59.15377 17432 ft 442 kts 101°
2026-04-23 21:07 -34.27053 -59.11758 16776 ft 435 kts 101°
2026-04-23 21:07 -34.27606 -59.08202 16116 ft 428 kts 101°
2026-04-23 21:07 -34.28149 -59.04699 15449 ft 422 kts 101°
2026-04-23 21:07 -34.28683 -59.01240 14811 ft 416 kts 101°
2026-04-23 21:08 -34.29207 -58.97837 14193 ft 409 kts 101°
2026-04-23 21:08 -34.29721 -58.94489 13510 ft 403 kts 101°
2026-04-23 21:08 -34.30216 -58.91180 12761 ft 399 kts 101°
2026-04-23 21:08 -34.30694 -58.87899 12017 ft 395 kts 101°
2026-04-23 21:09 -34.31165 -58.84662 11327 ft 390 kts 101°
2026-04-23 21:09 -34.31639 -58.81461 10721 ft 383 kts 101°
2026-04-23 21:09 -34.32128 -58.78384 10563 ft 362 kts 106°
2026-04-23 21:09 -34.33141 -58.75725 10428 ft 340 kts 128°
2026-04-23 21:10 -34.34592 -58.73571 10312 ft 322 kts 133°
2026-04-23 21:10 -34.36039 -58.71614 10131 ft 302 kts 135°
2026-04-23 21:10 -34.37456 -58.69809 9928 ft 291 kts 136°
2026-04-23 21:10 -34.38862 -58.68097 9639 ft 284 kts 137°
2026-04-23 21:11 -34.40241 -58.66445 9355 ft 274 kts 137°
2026-04-23 21:11 -34.41582 -58.64832 9069 ft 269 kts 137°
2026-04-23 21:11 -34.42815 -58.63173 8817 ft 265 kts 122°
2026-04-23 21:11 -34.43349 -58.61067 8484 ft 266 kts 90°
2026-04-23 21:12 -34.42995 -58.58851 7756 ft 280 kts 64°
2026-04-23 21:12 -34.41867 -58.56910 7170 ft 285 kts 41°
2026-04-23 21:12 -34.40192 -58.55794 6879 ft 274 kts
2026-04-23 21:12 -34.38349 -58.56066 6404 ft 270 kts 330°
2026-04-23 21:13 -34.37084 -58.57662 5902 ft 267 kts 291°
2026-04-23 21:13 -34.36841 -58.59857 5411 ft 267 kts 258°
2026-04-23 21:13 -34.37612 -58.61814 5216 ft 257 kts 226°
2026-04-23 21:13 -34.39113 -58.62868 4938 ft 252 kts 195°
2026-04-23 21:14 -34.40783 -58.63304 4848 ft 237 kts 190°
2026-04-23 21:14 -34.42351 -58.63544 4809 ft 216 kts 184°
2026-04-23 21:14 -34.43735 -58.63445 4722 ft 190 kts 160°
2026-04-23 21:14 -34.44699 -58.62459 4536 ft 185 kts 119°
2026-04-23 21:15 -34.45028 -58.61024 4626 ft 167 kts 99°
2026-04-23 21:15 -34.45359 -58.59715 4356 ft 159 kts 122°
2026-04-23 21:15 -34.46042 -58.58695 3979 ft 154 kts 135°
2026-04-23 21:15 -34.46790 -58.57797 3622 ft 150 kts 134°
2026-04-23 21:16 -34.47438 -58.56805 3178 ft 153 kts 126°
2026-04-23 21:16 -34.48005 -58.55723 2781 ft 151 kts 121°
2026-04-23 21:16 -34.48565 -58.54653 2489 ft 153 kts 123°
2026-04-23 21:16 -34.49158 -58.53576 2340 ft 150 kts 124°
2026-04-23 21:17 -34.49731 -58.52551 2125 ft 146 kts 124°
2026-04-23 21:17 -34.50350 -58.51551 1808 ft 151 kts 126°
2026-04-23 21:17 -34.50918 -58.50517 1637 ft 145 kts 121°
2026-04-23 21:17 -34.51461 -58.49505 1454 ft 143 kts 122°
2026-04-23 21:18 -34.52032 -58.48525 1255 ft 143 kts 124°
2026-04-23 21:18 -34.52607 -58.47523 1033 ft 147 kts 122°
2026-04-23 21:18 -34.53174 -58.46505 833 ft 145 kts 122°
2026-04-23 21:18 -34.53743 -58.45505 646 ft 145 kts 122°
2026-04-23 21:19 -34.54294 -58.44482 406 ft 145 kts 122°
2026-04-23 21:19 -34.54854 -58.43492 219 ft 141 kts 121°
2026-04-23 21:19 -34.55404 -58.42507 45 ft 140 kts 122°
2026-04-23 21:19 -34.55925 -58.41560 26 ft 124 kts 124°
2026-04-23 21:20 -34.56302 -58.40892 27 ft 51 kts 123°
2026-04-23 21:20 -34.56391 -58.40728 28 ft 15 kts 115°
2026-04-23 21:20 -34.56376 -58.40672 29 ft 1 kts 15°
2026-04-23 21:20 -34.56365 -58.40673 26 ft 2 kts 348°
2026-04-23 21:21 -34.56347 -58.40679 27 ft 3 kts 338°
2026-04-23 21:21 -34.56324 -58.40698 29 ft 5 kts 320°
2026-04-23 21:21 -34.56294 -58.40730 26 ft 6 kts 318°
2026-04-23 21:21 -34.56256 -58.40771 26 ft 8 kts 317°
2026-04-23 21:22 -34.56212 -58.40820 29 ft 10 kts 316°
2026-04-23 21:22 -34.56171 -58.40890 26 ft 11 kts 300°
2026-04-23 21:22 -34.56129 -58.40973 27 ft 12 kts 306°
2026-04-23 21:22 -34.56076 -58.41059 26 ft 13 kts 307°
2026-04-23 21:23 -34.56017 -58.41152 28 ft 15 kts 307°
2026-04-23 21:23 -34.55953 -58.41254 27 ft 16 kts 307°
2026-04-23 21:23 -34.55896 -58.41370 26 ft 17 kts 297°
2026-04-23 21:23 -34.55842 -58.41499 28 ft 18 kts 297°
2026-04-23 21:24 -34.55795 -58.41577 26 ft 7 kts 342°
2026-04-23 21:24 -34.55750 -58.41566 26 ft 7 kts 28°
2026-04-23 21:24 -34.55702 -58.41542 28 ft 8 kts 11°
2026-04-23 21:24 -34.55671 -58.41536 29 ft 2 kts
2026-04-23 21:25 -34.55666 -58.41535 28 ft 0 kts